AA3JL Weather Reports


time (UTC)temp
C
wind
direction
speed
KPH
gust
KPH
rain 1hr
cm
rain 24hr
cm
rain mn
cm
humidity
%
barometer
mb
20260504044543 3 0 0.0 0.0 0.00 0.00 0.00 78 1013.9
20260504043042 4 0 0.0 0.0 0.00 0.00 0.00 76 1013.8
20260504041540 4 0 0.0 0.0 0.00 0.00 0.00 76 1013.6
20260504040058 5 0 0.0 0.0 0.00 0.00 0.00 76 1013.6
20260504034553 5 0 0.0 0.0 0.00 0.00 0.00 75 1013.7
20260504033034 5 0 0.0 0.0 0.00 0.00 0.00 73 1013.7
20260504031536 6 0 0.0 0.0 0.00 0.00 0.00 71 1013.7
20260504030039 6 0 0.0 0.0 0.00 0.00 0.00 69 1013.7
20260504024535 6 0 0.0 1.6 0.00 0.00 0.00 67 1013.8
20260504023039 7 0 0.0 0.0 0.00 0.00 0.00 65 1013.8
20260504021538 7 0 0.0 0.0 0.00 0.00 0.00 63 1014.0
20260504020036 8 0 0.0 1.6 0.00 0.00 0.00 61 1013.9
20260504014536 8 0 0.0 3.2 0.00 0.00 0.00 59 1013.8
20260504013046 9 190 1.6 4.8 0.00 0.00 0.00 56 1013.8
20260504011541 10 0 0.0 4.8 0.00 0.00 0.00 53 1013.7
20260504010040 11 217 1.6 8.0 0.00 0.00 0.00 51 1013.7
20260504004539 11 212 3.2 8.0 0.00 0.00 0.00 48 1013.6
20260504003034 11 212 4.8 9.7 0.00 0.00 0.00 47 1013.7
20260504001536 12 221 4.8 14.5 0.00 0.00 0.00 45 1013.6
20260504000036 12 234 6.4 14.5 0.00 0.00 0.00 44 1013.6
20260503234540 13 225 9.7 17.7 0.00 0.00 0.00 42 1013.6
20260503233040 13 203 11.3 22.5 0.00 0.00 0.00 41 1013.7
20260503231536 13 192 17.7 30.6 0.00 0.00 0.00 39 1013.6
20260503230033 14 223 11.3 25.7 0.00 0.00 0.00 39 1013.6
20260503224533 15 243 9.7 33.8 0.00 0.00 0.00 38 1013.8
20260503223041 15 206 8.0 29.0 0.00 0.00 0.00 38 1013.8
20260503221543 15 223 9.7 24.1 0.00 0.00 0.00 40 1013.9
20260503220040 15 217 16.1 32.2 0.00 0.00 0.00 39 1013.7
20260503214539 15 227 12.9 29.0 0.00 0.00 0.00 38 1013.7
20260503213041 16 219 11.3 22.5 0.00 0.00 0.00 39 1013.7
20260503211548 16 217 11.3 25.7 0.00 0.00 0.00 38 1013.7
20260503210039 15 254 14.5 29.0 0.00 0.00 0.00 39 1013.8
20260503204546 15 236 12.9 27.4 0.00 0.00 0.00 39 1014.0
20260503203042 15 235 12.9 37.0 0.00 0.00 0.00 38 1014.0
20260503201539 15 235 12.9 24.1 0.00 0.00 0.00 39 1014.2
20260503200037 14 275 12.9 27.4 0.00 0.00 0.00 40 1014.4
20260503194545 15 250 12.9 30.6 0.00 0.00 0.00 40 1014.7
20260503193049 14 205 9.7 25.7 0.00 0.00 0.00 41 1014.8
20260503191538 15 223 8.0 25.7 0.00 0.00 0.00 42 1015.0
20260503190049 15 306 9.7 29.0 0.00 0.00 0.00 41 1015.1
20260503184536 15 201 14.5 30.6 0.00 0.00 0.00 42 1015.5
20260503183042 13 309 16.1 30.6 0.00 0.00 0.00 40 1015.7
20260503181541 13 248 11.3 27.4 0.00 0.00 0.00 46 1015.8
20260503180050 13 261 11.3 27.4 0.00 0.00 0.00 38 1015.9
20260503174539 13 207 16.1 27.4 0.00 0.00 0.00 43 1016.1
20260503173044 13 258 12.9 27.4 0.00 0.00 0.00 43 1016.1
20260503171542 13 229 16.1 30.6 0.00 0.00 0.00 42 1016.4
20260503081545 1 0 0.0 1.6 0.00 0.00 0.00 87 1016.0
20260503071543 1 0 0.0 3.2 0.00 0.00 0.00 88 1015.6
20260503054542 1 0 0.0 1.6 0.00 0.00 0.00 82 1015.6
20260503053039 2 288 0.0 1.6 0.00 0.00 0.00 80 1015.7
20260503051539 2 0 0.0 1.6 0.00 0.00 0.00 79 1015.8
20260503050037 3 0 0.0 4.8 0.00 0.00 0.00 78 1015.9